EZE637 LFMN-EDDN

Flight info

Callsign EZE637
Flight time N/A
Altitude 34000
Route IRMAR8A/04R IRMAR DCT KINES DCT VANAS DCT MOBLO DCT UBIMA/N0446F380 DCT SOSAL DCT KORED DCT BERSU DCT DITON/N0445F390 DCT LOKTA DCT TEDGO N869 LETKU LETKU1T
Aircraft A20N/M-SDE2E3FGHIRWXY/LB1

Departure

Time 2026-05-01 14:30
Airport Nice-Côte d'Azur Airport (LFMN)

Arrival

Time N/A
Airport Nuremberg Airport (EDDN)
Time Latitude Longitude Altitude Speed Heading
2026-05-01 14:24 43.65787 7.20671 22 ft 0 kts 224°
2026-05-01 14:24 43.65785 7.20669 22 ft 2 kts 224°
2026-05-01 14:25 43.65757 7.20632 22 ft 9 kts 224°
2026-05-01 14:25 43.65691 7.20606 23 ft 12 kts 158°
2026-05-01 14:25 43.65610 7.20675 24 ft 9 kts 170°
2026-05-01 14:25 43.65582 7.20636 24 ft 9 kts 241°
2026-05-01 14:26 43.65528 7.20561 24 ft 14 kts 223°
2026-05-01 14:26 43.65342 7.20310 22 ft 22 kts 213°
2026-05-01 14:26 43.65211 7.20389 24 ft 19 kts 134°
2026-05-01 14:27 43.65121 7.20502 22 ft 19 kts 151°
2026-05-01 14:27 43.65008 7.20484 22 ft 14 kts 217°
2026-05-01 14:27 43.64929 7.20378 22 ft 19 kts 225°
2026-05-01 14:28 43.64822 7.20273 22 ft 0 kts 178°
2026-05-01 14:28 43.64819 7.20274 22 ft 2 kts 175°
2026-05-01 14:29 43.64787 7.20295 23 ft 8 kts 139°
2026-05-01 14:29 43.64778 7.20385 24 ft 12 kts 70°
2026-05-01 14:30 43.64880 7.20536 22 ft 63 kts 45°
2026-05-01 14:30 43.65438 7.21305 29 ft 160 kts 46°
2026-05-01 14:30 43.66335 7.22515 797 ft 190 kts 45°
2026-05-01 14:31 43.67925 7.25541 3205 ft 202 kts 84°
2026-05-01 14:31 43.67680 7.27434 4656 ft 207 kts 116°
2026-05-01 14:31 43.66666 7.28917 5811 ft 225 kts 148°
2026-05-01 14:31 43.65151 7.29657 7001 ft 237 kts 164°
2026-05-01 14:32 43.63578 7.30330 8314 ft 236 kts 159°
2026-05-01 14:32 43.61988 7.30937 9676 ft 240 kts 167°
2026-05-01 14:32 43.60311 7.31142 10925 ft 246 kts 181°
2026-05-01 14:32 43.58623 7.30568 11989 ft 258 kts 206°
2026-05-01 14:33 43.57060 7.29294 13163 ft 264 kts 212°
2026-05-01 14:33 43.55760 7.27534 14378 ft 266 kts 239°
2026-05-01 14:33 43.55163 7.25108 15352 ft 271 kts 268°
2026-05-01 14:33 43.55454 7.22570 16405 ft 272 kts 295°
2026-05-01 14:34 43.56477 7.20410 17371 ft 276 kts 310°
2026-05-01 14:34 43.57710 7.18353 18378 ft 281 kts 312°
2026-05-01 14:34 43.58974 7.16272 19309 ft 285 kts 312°
2026-05-01 14:34 43.60273 7.14186 20208 ft 287 kts 319°
2026-05-01 14:35 43.61881 7.12553 21134 ft 286 kts 335°
2026-05-01 14:35 43.63742 7.11567 21989 ft 291 kts 345°
2026-05-01 14:35 43.65753 7.10710 22351 ft 315 kts 345°
2026-05-01 14:35 43.67931 7.09767 22589 ft 341 kts 344°
2026-05-01 14:36 43.70278 7.08739 22814 ft 365 kts 343°
2026-05-01 14:36 43.72771 7.07636 23054 ft 387 kts 343°
2026-05-01 14:36 43.75396 7.06472 23466 ft 402 kts 344°
2026-05-01 14:36 43.78082 7.05277 24231 ft 407 kts 343°
2026-05-01 14:37 43.80746 7.04090 24998 ft 409 kts 343°
2026-05-01 14:37 43.83461 7.02882 25773 ft 410 kts 342°
2026-05-01 14:37 43.86200 7.01663 26474 ft 414 kts 342°
2026-05-01 14:37 43.88956 7.00435 27111 ft 419 kts 342°
2026-05-01 14:38 43.91751 6.99189 27742 ft 423 kts 342°
2026-05-01 14:38 43.94567 6.97932 28386 ft 426 kts 342°
2026-05-01 14:38 43.97365 6.96682 28994 ft 429 kts 342°
2026-05-01 14:38 44.00225 6.95403 29600 ft 432 kts 341°
2026-05-01 14:39 44.03102 6.94115 30131 ft 436 kts 341°
2026-05-01 14:39 44.06005 6.92813 30666 ft 439 kts 341°
2026-05-01 14:39 44.08919 6.91505 31212 ft 440 kts 341°
2026-05-01 14:39 44.11854 6.90188 31743 ft 442 kts 342°
2026-05-01 14:40 44.14841 6.89132 32402 ft 441 kts 348°
2026-05-01 14:40 44.17871 6.88535 33120 ft 439 kts 353°
2026-05-01 14:40 44.20859 6.88102 33748 ft 435 kts 352°
2026-05-01 14:40 44.23862 6.87644 33970 ft 433 kts 352°
2026-05-01 14:41 44.26854 6.87183 34004 ft 432 kts 352°
2026-05-01 14:41 44.32843 6.86264 33998 ft 432 kts 352°
2026-05-01 14:42 44.38818 6.85356 33998 ft 432 kts 352°
2026-05-01 14:42 44.44805 6.84444 34007 ft 433 kts 352°
2026-05-01 14:43 44.50816 6.83533 33989 ft 436 kts 352°
2026-05-01 14:43 44.56853 6.82611 33988 ft 436 kts 352°
2026-05-01 14:44 44.62843 6.81696 33987 ft 436 kts 352°
2026-05-01 14:44 44.71883 6.80312 33987 ft 436 kts 352°
2026-05-01 14:45 44.80944 6.78992 33986 ft 437 kts 355°
2026-05-01 14:46 44.87022 6.78611 33989 ft 437 kts 355°
2026-05-01 14:46 44.96128 6.78000 33991 ft 436 kts 355°
2026-05-01 14:47 45.02159 6.77599 33994 ft 436 kts 355°
2026-05-01 14:48 45.11251 6.76993 34000 ft 437 kts 355°
2026-05-01 14:48 45.20355 6.76387 33977 ft 437 kts 355°
2026-05-01 14:49 45.32505 6.75574 33975 ft 436 kts 355°
2026-05-01 14:50 45.44638 6.74761 33972 ft 438 kts 355°
2026-05-01 14:51 45.52757 6.74211 33978 ft 438 kts 355°
2026-05-01 14:52 45.61937 6.73583 33977 ft 444 kts 356°
2026-05-01 14:53 45.71187 6.72950 33960 ft 443 kts 356°
2026-05-01 14:53 45.77342 6.72527 33958 ft 443 kts 356°
2026-05-01 14:54 45.83546 6.72100 33958 ft 447 kts 356°
2026-05-01 14:54 45.89708 6.71682 33957 ft 446 kts 356°
2026-05-01 14:55 45.95862 6.71264 33958 ft 439 kts 355°
2026-05-01 14:55 46.02041 6.70838 33956 ft 446 kts 355°
2026-05-01 14:56 46.08239 6.70425 33950 ft 445 kts 357°
2026-05-01 14:56 46.14423 6.71142 33951 ft 448 kts
2026-05-01 14:57 46.20479 6.73454 33951 ft 455 kts 15°
2026-05-01 14:57 46.29551 6.77258 33942 ft 454 kts 15°
2026-05-01 14:58 46.35616 6.79825 33944 ft 454 kts 15°
2026-05-01 14:58 46.41712 6.82416 33942 ft 458 kts 15°
2026-05-01 14:59 46.47814 6.85020 33937 ft 457 kts 15°
2026-05-01 14:59 46.53760 6.88084 33938 ft 457 kts 27°
2026-05-01 15:00 46.58751 6.93770 33940 ft 460 kts 48°
2026-05-01 15:00 46.60771 6.97371 33939 ft 459 kts 51°
2026-05-01 15:01 46.64796 7.04617 33941 ft 459 kts 50°
2026-05-01 15:01 46.68813 7.11861 33939 ft 459 kts 51°
2026-05-01 15:02 46.72823 7.19123 33939 ft 459 kts 51°
2026-05-01 15:02 46.76829 7.26397 33921 ft 459 kts 51°
2026-05-01 15:03 46.80806 7.33640 33918 ft 459 kts 51°
2026-05-01 15:03 46.84777 7.40895 33914 ft 454 kts 50°
2026-05-01 15:04 46.88730 7.48142 33915 ft 456 kts 50°
2026-05-01 15:04 46.92679 7.55408 33921 ft 456 kts 51°
2026-05-01 15:05 46.96594 7.62628 33920 ft 455 kts 51°
2026-05-01 15:05 47.00527 7.69900 33918 ft 456 kts 51°
2026-05-01 15:06 47.04457 7.77184 33916 ft 456 kts 51°
2026-05-01 15:06 47.08379 7.84473 33920 ft 456 kts 51°
2026-05-01 15:07 47.12300 7.91780 33920 ft 455 kts 51°
2026-05-01 15:07 47.15835 7.99480 33926 ft 456 kts 57°
2026-05-01 15:08 47.19180 8.07313 33929 ft 456 kts 57°
2026-05-01 15:08 47.22552 8.15215 33929 ft 456 kts 57°
2026-05-01 15:09 47.25913 8.23130 33932 ft 456 kts 57°
2026-05-01 15:09 47.29473 8.30812 33943 ft 453 kts 48°
2026-05-01 15:10 47.34052 8.36988 33939 ft 447 kts 34°
2026-05-01 15:10 47.41822 8.44512 33943 ft 447 kts 32°
2026-05-01 15:11 47.49621 8.52088 33944 ft 446 kts 32°
2026-05-01 15:12 47.54806 8.57133 33943 ft 446 kts 32°
2026-05-01 15:12 47.60003 8.62201 34129 ft 450 kts 32°
2026-05-01 15:12 47.62614 8.64751 34260 ft 447 kts 32°
2026-05-01 15:14 47.75501 8.77388 34278 ft 445 kts 32°
2026-05-01 15:14 47.83243 8.85014 34276 ft 445 kts 32°
2026-05-01 15:15 47.93525 8.95186 34276 ft 436 kts 33°
2026-05-01 15:16 48.03678 9.05279 34275 ft 438 kts 33°
2026-05-01 15:18 48.16619 9.17188 34270 ft 436 kts 20°
2026-05-01 15:19 48.28488 9.20240 34278 ft 434 kts
2026-05-01 15:19 48.37552 9.21786 34273 ft 437 kts
2026-05-01 15:20 48.46624 9.23324 34267 ft 438 kts
2026-05-01 15:21 48.52679 9.24353 34266 ft 438 kts
2026-05-01 15:21 48.58667 9.25901 34265 ft 436 kts 18°
2026-05-01 15:21 48.61416 9.27739 34264 ft 440 kts 29°
2026-05-01 15:22 48.66065 9.33662 34265 ft 441 kts 50°
2026-05-01 15:22 48.69954 9.40837 34272 ft 441 kts 49°
2026-05-01 15:23 48.73848 9.48017 34280 ft 441 kts 49°
2026-05-01 15:23 48.77732 9.55202 34280 ft 441 kts 49°
2026-05-01 15:24 48.81612 9.62402 34286 ft 442 kts 49°
2026-05-01 15:24 48.85463 9.69570 34302 ft 438 kts 49°
2026-05-01 15:25 48.89322 9.76768 34314 ft 440 kts 49°
2026-05-01 15:25 48.93186 9.83998 34310 ft 441 kts 49°
2026-05-01 15:26 48.97019 9.91193 34319 ft 441 kts 49°
2026-05-01 15:26 49.00869 9.98435 34315 ft 441 kts 49°
2026-05-01 15:27 49.04726 10.05713 34322 ft 441 kts 50°
2026-05-01 15:28 49.10475 10.16597 34119 ft 436 kts 50°
2026-05-01 15:28 49.12346 10.20148 33467 ft 434 kts 50°
2026-05-01 15:28 49.14258 10.23723 32688 ft 432 kts 47°
2026-05-01 15:29 49.18463 10.30306 30774 ft 434 kts 45°
2026-05-01 15:29 49.20583 10.33584 29844 ft 433 kts 45°
2026-05-01 15:29 49.24756 10.40057 28309 ft 420 kts 45°
2026-05-01 15:30 49.28155 10.45248 27059 ft 411 kts 45°
2026-05-01 15:31 49.34031 10.60824 23951 ft 393 kts 86°
2026-05-01 15:31 49.33430 10.69074 22401 ft 386 kts 97°
2026-05-01 15:32 49.32655 10.77117 20953 ft 377 kts 97°
2026-05-01 15:32 49.31900 10.84989 19590 ft 368 kts 97°
2026-05-01 15:33 49.30793 10.96405 17493 ft 357 kts 97°
2026-05-01 15:34 49.31611 11.07309 15387 ft 347 kts 60°